DAL2132 KLAX-KSFO

Flight info

Callsign DAL2132
Flight time 0h 56m
Altitude 32000
Route SUMMR2 STOKD SERFR SERFR4
Aircraft B738/M-SDE2E3FGHIRWXY/LB1

Departure

Time 2026-04-25 04:08
Airport Los Angeles International Airport (KLAX)

Arrival

Time 2026-04-25 05:04
Airport San Francisco International Airport (KSFO)
Time Latitude Longitude Altitude Speed Heading
2026-04-25 03:36 33.94669 -118.40497 121 ft 0 kts 124°
2026-04-25 03:58 33.94674 -118.40506 125 ft 2 kts 123°
2026-04-25 03:58 33.94683 -118.40522 112 ft 2 kts 124°
2026-04-25 03:58 33.94692 -118.40538 127 ft 2 kts 124°
2026-04-25 03:58 33.94702 -118.40555 123 ft 2 kts 125°
2026-04-25 03:59 33.94708 -118.40565 123 ft 0 kts 127°
2026-04-25 03:59 33.94712 -118.40572 122 ft 1 kts 127°
2026-04-25 03:59 33.94732 -118.40582 121 ft 6 kts 165°
2026-04-25 03:59 33.94767 -118.40601 123 ft 6 kts 122°
2026-04-25 04:00 33.94775 -118.40632 125 ft 0 kts 76°
2026-04-25 04:02 33.94778 -118.40628 125 ft 2 kts 56°
2026-04-25 04:03 33.94821 -118.40602 122 ft 10 kts 359°
2026-04-25 04:03 33.94867 -118.40556 125 ft 10 kts 81°
2026-04-25 04:03 33.94877 -118.40475 121 ft 10 kts 81°
2026-04-25 04:03 33.94886 -118.40395 125 ft 9 kts 84°
2026-04-25 04:04 33.94893 -118.40317 123 ft 9 kts 84°
2026-04-25 04:04 33.94901 -118.40241 123 ft 9 kts 82°
2026-04-25 04:04 33.94910 -118.40154 125 ft 13 kts 82°
2026-04-25 04:04 33.94923 -118.40040 125 ft 14 kts 83°
2026-04-25 04:05 33.94939 -118.39942 124 ft 10 kts 58°
2026-04-25 04:05 33.94955 -118.39924 123 ft 0 kts 27°
2026-04-25 04:06 33.94999 -118.39915 122 ft 9 kts 356°
2026-04-25 04:06 33.95041 -118.39954 122 ft 8 kts 261°
2026-04-25 04:07 33.95032 -118.40037 123 ft 18 kts 263°
2026-04-25 04:07 33.94987 -118.40464 123 ft 86 kts 263°
2026-04-25 04:07 33.94885 -118.41432 125 ft 144 kts 261°
2026-04-25 04:07 33.94739 -118.42733 495 ft 161 kts 261°
2026-04-25 04:08 33.94604 -118.44077 1231 ft 161 kts 263°
2026-04-25 04:08 33.94472 -118.45478 1661 ft 180 kts 264°
2026-04-25 04:08 33.94330 -118.47092 1893 ft 205 kts 266°
2026-04-25 04:08 33.94266 -118.48884 2077 ft 223 kts 268°
2026-04-25 04:09 33.94220 -118.50788 2456 ft 230 kts 268°
2026-04-25 04:09 33.94107 -118.52698 2961 ft 233 kts 265°
2026-04-25 04:09 33.93941 -118.54728 3174 ft 253 kts 264°
2026-04-25 04:09 33.93763 -118.56891 3718 ft 260 kts 265°
2026-04-25 04:10 33.93589 -118.59051 4511 ft 261 kts 264°
2026-04-25 04:10 33.93415 -118.61243 5186 ft 265 kts 264°
2026-04-25 04:10 33.93241 -118.63452 5973 ft 265 kts 264°
2026-04-25 04:10 33.93065 -118.65684 6677 ft 269 kts 264°
2026-04-25 04:11 33.92715 -118.70205 8169 ft 272 kts 264°
2026-04-25 04:11 33.92538 -118.72482 8973 ft 273 kts 264°
2026-04-25 04:11 33.92361 -118.74769 9779 ft 275 kts 264°
2026-04-25 04:12 33.92182 -118.77055 10407 ft 283 kts 264°
2026-04-25 04:12 33.91989 -118.79515 10594 ft 307 kts 264°
2026-04-25 04:12 33.91781 -118.82156 10857 ft 325 kts 264°
2026-04-25 04:12 33.91647 -118.84913 11486 ft 330 kts 270°
2026-04-25 04:13 33.91734 -118.87681 12314 ft 329 kts 272°
2026-04-25 04:13 33.91866 -118.90432 13183 ft 329 kts 272°
2026-04-25 04:13 33.91978 -118.93154 13965 ft 330 kts 271°
2026-04-25 04:13 33.92072 -118.95935 14650 ft 333 kts 271°
2026-04-25 04:14 33.92156 -118.98749 15286 ft 338 kts 271°
2026-04-25 04:14 33.92464 -119.01562 15984 ft 342 kts 284°
2026-04-25 04:14 33.93443 -119.04194 16725 ft 348 kts 297°
2026-04-25 04:14 33.94718 -119.06659 17409 ft 352 kts 299°
2026-04-25 04:15 33.96056 -119.09148 18060 ft 355 kts 299°
2026-04-25 04:15 33.97393 -119.11666 18624 ft 359 kts 298°
2026-04-25 04:15 33.98726 -119.14224 19197 ft 361 kts 298°
2026-04-25 04:15 34.00057 -119.16800 19792 ft 363 kts 298°
2026-04-25 04:16 34.01637 -119.19212 20342 ft 374 kts 313°
2026-04-25 04:16 34.03732 -119.21141 21009 ft 378 kts 319°
2026-04-25 04:16 34.05889 -119.22965 21616 ft 380 kts 320°
2026-04-25 04:16 34.08075 -119.24799 22129 ft 384 kts 320°
2026-04-25 04:17 34.10252 -119.26635 22581 ft 388 kts 319°
2026-04-25 04:17 34.12467 -119.28516 23089 ft 391 kts 319°
2026-04-25 04:17 34.14709 -119.30433 23598 ft 394 kts 319°
2026-04-25 04:17 34.16949 -119.32356 24013 ft 397 kts 319°
2026-04-25 04:18 34.19204 -119.34297 24449 ft 399 kts 319°
2026-04-25 04:18 34.21470 -119.36251 24921 ft 400 kts 319°
2026-04-25 04:18 34.23738 -119.38207 25459 ft 399 kts 319°
2026-04-25 04:18 34.25975 -119.40140 25869 ft 401 kts 318°
2026-04-25 04:19 34.28260 -119.42116 26227 ft 405 kts 318°
2026-04-25 04:19 34.30558 -119.44106 26604 ft 408 kts 318°
2026-04-25 04:19 34.32870 -119.46107 27054 ft 408 kts 318°
2026-04-25 04:19 34.35175 -119.48101 27645 ft 405 kts 318°
2026-04-25 04:20 34.37455 -119.50075 28231 ft 402 kts 318°
2026-04-25 04:20 34.39706 -119.52027 28799 ft 400 kts 317°
2026-04-25 04:20 34.41919 -119.54053 29341 ft 394 kts 312°
2026-04-25 04:20 34.43893 -119.56336 29823 ft 391 kts 308°
2026-04-25 04:21 34.45791 -119.58702 30281 ft 389 kts 307°
2026-04-25 04:21 34.47653 -119.61082 30798 ft 387 kts 307°
2026-04-25 04:21 34.49481 -119.63408 31257 ft 385 kts 307°
2026-04-25 04:21 34.51345 -119.65758 31640 ft 385 kts 307°
2026-04-25 04:22 34.53221 -119.68106 31913 ft 388 kts 307°
2026-04-25 04:22 34.56992 -119.72769 31904 ft 387 kts 307°
2026-04-25 04:23 34.60747 -119.77412 31905 ft 384 kts 307°
2026-04-25 04:23 34.64476 -119.82028 31932 ft 384 kts 307°
2026-04-25 04:24 34.68235 -119.86684 31957 ft 386 kts 307°
2026-04-25 04:24 34.72003 -119.91360 31940 ft 387 kts 307°
2026-04-25 04:25 34.75760 -119.96025 31955 ft 387 kts 307°
2026-04-25 04:25 34.79517 -120.00700 31982 ft 384 kts 307°
2026-04-25 04:26 34.83245 -120.05339 31984 ft 382 kts 307°
2026-04-25 04:26 34.87033 -120.09899 31977 ft 384 kts 307°
2026-04-25 04:27 34.90618 -120.14612 32023 ft 383 kts 306°
2026-04-25 04:27 34.94283 -120.19284 32037 ft 377 kts 305°
2026-04-25 04:28 34.97924 -120.23900 31995 ft 382 kts 310°
2026-04-25 04:28 35.01754 -120.28353 32004 ft 383 kts 307°
2026-04-25 04:29 35.05437 -120.33074 32003 ft 385 kts 306°
2026-04-25 04:29 35.09183 -120.37797 32003 ft 389 kts 308°
2026-04-25 04:30 35.13141 -120.42298 31993 ft 391 kts 310°
2026-04-25 04:30 35.16509 -120.46006 31987 ft 391 kts 310°
2026-04-25 04:31 35.20537 -120.50469 31995 ft 389 kts 310°
2026-04-25 04:31 35.24506 -120.54884 32038 ft 387 kts 311°
2026-04-25 04:32 35.28404 -120.59381 32006 ft 385 kts 309°
2026-04-25 04:32 35.32358 -120.63821 31992 ft 385 kts 310°
2026-04-25 04:33 35.36315 -120.68245 32004 ft 384 kts 309°
2026-04-25 04:33 35.40232 -120.72660 32018 ft 385 kts 309°
2026-04-25 04:34 35.44168 -120.77116 32008 ft 384 kts 309°
2026-04-25 04:34 35.48106 -120.81565 31994 ft 384 kts 310°
2026-04-25 04:35 35.52301 -120.85653 31990 ft 390 kts 315°
2026-04-25 04:35 35.56658 -120.89618 31994 ft 389 kts 315°
2026-04-25 04:36 35.60989 -120.93589 31981 ft 387 kts 315°
2026-04-25 04:36 35.65248 -120.97546 31973 ft 385 kts 315°
2026-04-25 04:37 35.69532 -121.01522 31986 ft 386 kts 316°
2026-04-25 04:37 35.73969 -121.05320 31993 ft 389 kts 317°
2026-04-25 04:38 35.78476 -121.09063 31979 ft 391 kts 318°
2026-04-25 04:38 35.82939 -121.12813 31979 ft 391 kts 317°
2026-04-25 04:39 35.87428 -121.16614 31966 ft 390 kts 317°
2026-04-25 04:39 35.91859 -121.20373 31867 ft 379 kts 317°
2026-04-25 04:39 35.94015 -121.22203 31594 ft 372 kts 317°
2026-04-25 04:40 35.96136 -121.24007 31202 ft 367 kts 317°
2026-04-25 04:40 35.98200 -121.25768 30857 ft 364 kts 317°
2026-04-25 04:40 36.00279 -121.27544 30483 ft 361 kts 317°
2026-04-25 04:40 36.02349 -121.29312 30119 ft 359 kts 317°
2026-04-25 04:41 36.04405 -121.31069 29683 ft 357 kts 317°
2026-04-25 04:41 36.06442 -121.32810 29269 ft 353 kts 317°
2026-04-25 04:41 36.08430 -121.34511 28913 ft 350 kts 317°
2026-04-25 04:41 36.10433 -121.36212 28496 ft 346 kts 317°
2026-04-25 04:42 36.12407 -121.37903 28152 ft 343 kts 317°
2026-04-25 04:42 36.14370 -121.39568 27753 ft 340 kts 318°
2026-04-25 04:42 36.16299 -121.41240 27374 ft 336 kts 316°
2026-04-25 04:42 36.18172 -121.42886 27067 ft 334 kts 317°
2026-04-25 04:43 36.20134 -121.44584 26710 ft 355 kts 318°
2026-04-25 04:43 36.22234 -121.46392 26307 ft 379 kts 319°
2026-04-25 04:43 36.24431 -121.48269 25870 ft 385 kts 319°
2026-04-25 04:43 36.26636 -121.50156 25407 ft 384 kts 320°
2026-04-25 04:44 36.28855 -121.51987 25017 ft 382 kts 320°
2026-04-25 04:44 36.31045 -121.53871 24601 ft 382 kts 319°
2026-04-25 04:44 36.33219 -121.55768 24181 ft 382 kts 319°
2026-04-25 04:44 36.35386 -121.57659 23759 ft 382 kts 319°
2026-04-25 04:45 36.37557 -121.59545 23302 ft 378 kts 319°
2026-04-25 04:45 36.39677 -121.61381 22844 ft 374 kts 320°
2026-04-25 04:45 36.41810 -121.63226 22426 ft 371 kts 320°
2026-04-25 04:45 36.43923 -121.65055 22019 ft 368 kts 320°
2026-04-25 04:46 36.46019 -121.66868 21601 ft 366 kts 321°
2026-04-25 04:46 36.48102 -121.68672 21200 ft 363 kts 321°
2026-04-25 04:46 36.50175 -121.70463 20800 ft 362 kts 321°
2026-04-25 04:46 36.52265 -121.72164 20349 ft 363 kts 323°
2026-04-25 04:47 36.54403 -121.73835 19952 ft 362 kts 324°
2026-04-25 04:47 36.56541 -121.75495 19556 ft 360 kts 324°
2026-04-25 04:47 36.58662 -121.77150 19166 ft 359 kts 324°
2026-04-25 04:47 36.60773 -121.78809 18782 ft 359 kts 324°
2026-04-25 04:48 36.62885 -121.80478 18399 ft 358 kts 324°
2026-04-25 04:48 36.64964 -121.82124 17974 ft 358 kts 325°
2026-04-25 04:48 36.67060 -121.83786 17561 ft 357 kts 325°
2026-04-25 04:48 36.69156 -121.85450 17160 ft 356 kts 325°
2026-04-25 04:49 36.71244 -121.87109 16778 ft 354 kts 326°
2026-04-25 04:49 36.73328 -121.88758 16393 ft 353 kts 327°
2026-04-25 04:49 36.75563 -121.89950 15993 ft 356 kts 345°
2026-04-25 04:49 36.77979 -121.90598 15623 ft 354 kts 347°
2026-04-25 04:50 36.80385 -121.91222 15239 ft 350 kts 347°
2026-04-25 04:50 36.82765 -121.91851 14865 ft 346 kts 347°
2026-04-25 04:50 36.85087 -121.92481 14496 ft 344 kts 347°
2026-04-25 04:50 36.87422 -121.93126 14137 ft 341 kts 347°
2026-04-25 04:51 36.89729 -121.93768 13765 ft 338 kts 348°
2026-04-25 04:51 36.92023 -121.94410 13353 ft 336 kts 347°
2026-04-25 04:51 36.94298 -121.95046 12965 ft 333 kts 348°
2026-04-25 04:51 36.96511 -121.95738 12596 ft 329 kts 344°
2026-04-25 04:52 36.98691 -121.96569 12248 ft 325 kts 343°
2026-04-25 04:52 37.00835 -121.97430 11887 ft 322 kts 342°
2026-04-25 04:52 37.02958 -121.98285 11539 ft 318 kts 342°
2026-04-25 04:52 37.05063 -121.99126 11201 ft 315 kts 342°
2026-04-25 04:53 37.07145 -121.99952 10843 ft 310 kts 342°
2026-04-25 04:53 37.09176 -122.00752 10505 ft 302 kts 342°
2026-04-25 04:53 37.11132 -122.01520 10230 ft 293 kts 342°
2026-04-25 04:53 37.13048 -122.02271 10115 ft 284 kts 342°
2026-04-25 04:54 37.14934 -122.03010 9942 ft 283 kts 342°
2026-04-25 04:54 37.16822 -122.03750 9625 ft 284 kts 342°
2026-04-25 04:54 37.18705 -122.04487 9325 ft 283 kts 342°
2026-04-25 04:54 37.20582 -122.05223 9030 ft 282 kts 341°
2026-04-25 04:55 37.22424 -122.05945 8731 ft 280 kts 341°
2026-04-25 04:55 37.24279 -122.06672 8447 ft 278 kts 342°
2026-04-25 04:55 37.26119 -122.07394 8162 ft 276 kts 342°
2026-04-25 04:55 37.27952 -122.08114 7862 ft 276 kts 341°
2026-04-25 04:56 37.29789 -122.08835 7522 ft 277 kts 342°
2026-04-25 04:56 37.31638 -122.09564 7164 ft 278 kts 341°
2026-04-25 04:56 37.33488 -122.10295 6814 ft 279 kts 342°
2026-04-25 04:56 37.35336 -122.11024 6437 ft 277 kts 342°
2026-04-25 04:57 37.37137 -122.11734 6051 ft 271 kts 341°
2026-04-25 04:57 37.38948 -122.12396 5713 ft 264 kts 343°
2026-04-25 04:57 37.40682 -122.12983 5388 ft 258 kts 344°
2026-04-25 04:57 37.42410 -122.13571 5097 ft 257 kts 343°
2026-04-25 04:58 37.44145 -122.14163 4790 ft 258 kts 343°
2026-04-25 04:58 37.45889 -122.14750 4465 ft 259 kts 343°
2026-04-25 04:58 37.47626 -122.15321 4154 ft 256 kts 343°
2026-04-25 04:58 37.49300 -122.15872 3879 ft 246 kts 343°
2026-04-25 04:59 37.50917 -122.16402 3582 ft 233 kts 343°
2026-04-25 04:59 37.52456 -122.16908 3316 ft 224 kts 342°
2026-04-25 04:59 37.53775 -122.17786 3044 ft 207 kts 308°
2026-04-25 04:59 37.54397 -122.19289 2956 ft 187 kts 292°
2026-04-25 05:00 37.55084 -122.20664 2740 ft 180 kts 300°
2026-04-25 05:00 37.55658 -122.21967 2542 ft 162 kts 294°
2026-04-25 05:00 37.56157 -122.23199 2290 ft 149 kts 294°
2026-04-25 05:00 37.56625 -122.24338 2086 ft 145 kts 294°
2026-04-25 05:01 37.57082 -122.25440 1906 ft 143 kts 295°
2026-04-25 05:01 37.57547 -122.26559 1712 ft 144 kts 295°
2026-04-25 05:01 37.58012 -122.27677 1514 ft 143 kts 295°
2026-04-25 05:01 37.58473 -122.28787 1318 ft 142 kts 295°
2026-04-25 05:02 37.58916 -122.29873 1097 ft 137 kts 295°
2026-04-25 05:02 37.59356 -122.30929 904 ft 137 kts 295°
2026-04-25 05:02 37.59796 -122.31979 737 ft 135 kts 295°
2026-04-25 05:02 37.60233 -122.33025 546 ft 134 kts 294°
2026-04-25 05:03 37.60683 -122.34107 362 ft 141 kts 295°
2026-04-25 05:03 37.61127 -122.35177 173 ft 135 kts 295°
2026-04-25 05:03 37.61568 -122.36213 29 ft 132 kts 295°
2026-04-25 05:03 37.61942 -122.37123 14 ft 98 kts 298°
2026-04-25 05:04 37.62189 -122.37721 21 ft 55 kts 300°
2026-04-25 05:04 37.62318 -122.38014 22 ft 30 kts 298°
2026-04-25 05:04 37.62315 -122.38225 22 ft 19 kts 230°
2026-04-25 05:04 37.62285 -122.38257 21 ft 0 kts 210°
2026-04-25 05:05 37.62271 -122.38265 21 ft 9 kts 202°
2026-04-25 05:05 37.62181 -122.38302 20 ft 14 kts 196°
2026-04-25 05:05 37.62128 -122.38321 21 ft 0 kts 197°
2026-04-25 05:06 37.62122 -122.38324 21 ft 2 kts 197°
2026-04-25 05:06 37.62096 -122.38333 21 ft 6 kts 196°
2026-04-25 05:06 37.62050 -122.38350 22 ft 5 kts 197°
2026-04-25 05:07 37.62025 -122.38362 22 ft 7 kts 208°
2026-04-25 05:07 37.61996 -122.38386 20 ft 1 kts 219°
2026-04-25 05:07 37.61988 -122.38398 20 ft 0 kts 231°